TimePST,TemperatureF,Dew PointF,Humidity,Sea Level PressureIn,VisibilityMPH,Wind Direction,Wind SpeedMPH,Gust SpeedMPH,PrecipitationIn,Events,Conditions,WindDirDegrees,DateUTC
12:44 AM,12.2,10.4,92,30.16,2.5,SSE,4.6,-,N/A,,Partly Cloudy,160,2012-12-28 08:44:00
12:47 AM,12.2,10.4,92,30.16,1.0,South,4.6,-,N/A,,Mist,180,2012-12-28 08:47:00
12:56 AM,12.9,10.9,92,30.06,2.5,South,3.5,-,N/A,,Partly Cloudy,190,2012-12-28 08:56:00
1:06 AM,12.2,10.4,92,30.17,1.5,Calm,Calm,-,N/A,,Partly Cloudy,0,2012-12-28 09:06:00
1:10 AM,12.2,10.4,92,30.17,3.0,Calm,Calm,-,N/A,,Partly Cloudy,0,2012-12-28 09:10:00
1:45 AM,12.2,8.6,85,30.17,1.8,Calm,Calm,-,N/A,,Mostly Cloudy,0,2012-12-28 09:45:00
1:54 AM,12.2,10.4,92,30.17,0.5,Calm,Calm,-,N/A,Fog,Light Freezing Fog,0,2012-12-28 09:54:00
1:56 AM,12.0,10.0,92,30.07,0.5,Calm,Calm,-,N/A,Fog,Light Freezing Fog,0,2012-12-28 09:56:00
2:22 AM,12.2,10.4,92,30.17,0.2,ESE,3.5,-,N/A,Fog,Light Freezing Fog,120,2012-12-28 10:22:00
2:56 AM,14.0,8.1,77,30.06,0.2,Calm,Calm,-,N/A,,Haze,0,2012-12-28 10:56:00
3:06 AM,15.8,10.4,79,30.16,0.5,Calm,Calm,-,N/A,,Haze,0,2012-12-28 11:06:00
3:21 AM,15.8,8.6,73,30.16,0.2,Calm,Calm,-,N/A,,Haze,0,2012-12-28 11:21:00
3:33 AM,14.0,8.6,79,30.16,0.2,Calm,Calm,-,N/A,,Haze,0,2012-12-28 11:33:00
3:42 AM,14.0,8.6,79,30.16,0.5,Calm,Calm,-,N/A,,Haze,0,2012-12-28 11:42:00
3:54 AM,14.0,8.6,79,30.16,0.2,Calm,Calm,-,N/A,,Haze,0,2012-12-28 11:54:00
3:56 AM,14.0,9.0,80,30.06,0.2,Calm,Calm,-,N/A,,Haze,0,2012-12-28 11:56:00
4:56 AM,15.1,9.0,77,30.05,0.2,Calm,Calm,-,N/A,,Haze,0,2012-12-28 12:56:00
5:56 AM,15.1,7.0,70,30.06,0.2,Calm,Calm,-,N/A,,Haze,0,2012-12-28 13:56:00
6:11 AM,12.2,5.0,73,30.16,0.2,Calm,Calm,-,N/A,Fog,Light Freezing Fog,0,2012-12-28 14:11:00
6:22 AM,12.2,6.8,79,30.16,0.5,Calm,Calm,-,N/A,Fog,Light Freezing Fog,0,2012-12-28 14:22:00
6:27 AM,12.2,6.8,79,30.16,1.0,Calm,Calm,-,N/A,,Overcast,0,2012-12-28 14:27:00
6:38 AM,14.0,8.6,79,30.16,0.2,Calm,Calm,-,N/A,Fog,Light Freezing Fog,0,2012-12-28 14:38:00
6:56 AM,15.1,8.1,74,30.06,0.1,Calm,Calm,-,N/A,Fog,Light Freezing Fog,0,2012-12-28 14:56:00
7:42 AM,15.8,10.4,79,30.16,0.1,Calm,Calm,-,N/A,Fog,Light Freezing Fog,0,2012-12-28 15:42:00
7:56 AM,18.0,12.0,78,30.06,0.1,Calm,Calm,-,N/A,Fog,Light Freezing Fog,0,2012-12-28 15:56:00
8:25 AM,21.2,14.0,74,30.17,0.1,Calm,Calm,-,N/A,Fog,Light Freezing Fog,0,2012-12-28 16:25:00
8:56 AM,24.1,16.0,71,30.07,5.0,Calm,Calm,-,N/A,,Mostly Cloudy,0,2012-12-28 16:56:00
9:56 AM,28.0,19.9,72,30.07,10.0,Calm,Calm,-,N/A,,Mostly Cloudy,0,2012-12-28 17:56:00
10:56 AM,28.0,21.9,78,30.05,10.0,Calm,Calm,-,N/A,,Mostly Cloudy,0,2012-12-28 18:56:00
11:56 AM,28.9,21.9,75,30.02,10.0,WNW,3.5,-,N/A,,Mostly Cloudy,290,2012-12-28 19:56:00
12:56 PM,32.0,21.9,66,30.00,10.0,NE,5.8,-,N/A,,Mostly Cloudy,50,2012-12-28 20:56:00
1:56 PM,32.0,21.0,64,30.00,10.0,NE,6.9,-,N/A,,Mostly Cloudy,40,2012-12-28 21:56:00
2:56 PM,32.0,21.0,64,30.00,10.0,NNE,5.8,-,N/A,,Overcast,30,2012-12-28 22:56:00
3:56 PM,30.9,21.0,67,29.99,10.0,NE,8.1,-,N/A,,Overcast,40,2012-12-28 23:56:00
4:56 PM,28.9,21.0,72,29.99,10.0,NE,5.8,-,N/A,,Overcast,40,2012-12-29 00:56:00
5:56 PM,28.0,21.0,75,29.99,10.0,North,5.8,-,N/A,,Overcast,10,2012-12-29 01:56:00
6:56 PM,26.1,19.9,78,30.00,10.0,NNE,4.6,-,N/A,,Overcast,30,2012-12-29 02:56:00
7:56 PM,25.0,19.9,81,30.00,10.0,North,5.8,-,N/A,,Overcast,360,2012-12-29 03:56:00
8:56 PM,25.0,19.9,81,30.00,10.0,NNE,5.8,-,N/A,,Overcast,30,2012-12-29 04:56:00
9:56 PM,25.0,19.0,78,30.00,10.0,NE,4.6,-,N/A,,Overcast,40,2012-12-29 05:56:00
10:56 PM,25.0,18.0,75,30.00,10.0,North,3.5,-,N/A,,Overcast,10,2012-12-29 06:56:00
11:56 PM,24.1,18.0,77,30.00,10.0,NW,3.5,-,N/A,,Overcast,320,2012-12-29 07:56:00